Location: Goll?ig?dem
(16.6773°N, 80.7332°E)
Time: 22:33:18
(UTC+00:00)

Helios 1A - Pass Details

Date: 19 May 2025
Orbit: 544 x 570 km, 98.3° (Epoch: 03 June)

Event Time Altitude Azimuth Distance (km) Brightness Sun altitude
Rises 14:27:54 0° 23° (NNE) 2,752 6.5 -19.5°
Reaches altitude 10° 14:30:09 10° 31° (NNE) 1,850 5.5 -19.9°
Enters shadow 14:32:13 26° 50° (NE) 1,123 4.2 -20.4°
